• In Uzbekistan
  • List of Countries
  • For 7 days
  • Water Temperature
  • Satellite Maps
  • Weather Map
  • Weather Widgets
  • user-avatar
    Login

    Hourly Weather Mafeteng

    Today, 20 September, Thursday

    Time Temperature Precipitation Wind Pressure Humidity
    00:00 +8°C° 0 mm 2 mps 628 mmHg 42%
    01:00 +7°C° 0 mm 2 mps 628 mmHg 45%
    02:00 +6°C° 0 mm 2 mps 628 mmHg 47%
    03:00 +6°C° 0 mm 2 mps 627 mmHg 50%
    04:00 +5°C° 0 mm 2 mps 627 mmHg 53%
    05:00 +6°C° 0 mm 1 mps 627 mmHg 56%
    06:00 +7°C° 0 mm 1 mps 628 mmHg 52%
    07:00 +8°C° 0 mm 1 mps 628 mmHg 48%
    08:00 +9°C° 0 mm 1 mps 629 mmHg 44%
    09:00 +10°C° 0 mm 2 mps 629 mmHg 36%
    10:00 +14°C° 0 mm 2 mps 629 mmHg 28%
    11:00 +16°C° 0 mm 2 mps 630 mmHg 20%
    12:00 +18°C° 0 mm 3 mps 629 mmHg 19%
    13:00 +20°C° 0 mm 4 mps 629 mmHg 17%
    14:00 +22°C° 0 mm 5 mps 629 mmHg 15%
    15:00 +21°C° 0 mm 5 mps 629 mmHg 14%
    16:00 +21°C° 0 mm 5 mps 628 mmHg 14%
    17:00 +21°C° 0 mm 5 mps 628 mmHg 13%
    18:00 +19°C° 0 mm 4 mps 628 mmHg 15%
    19:00 +17°C° 0 mm 3 mps 627 mmHg 17%
    20:00 +15°C° 0 mm 2 mps 627 mmHg 18%
    21:00 +15°C° 0 mm 1 mps 628 mmHg 19%
    22:00 +15°C° 0 mm 1 mps 628 mmHg 21%
    23:00 +14°C° 0 mm 1 mps 628 mmHg 22%

    Tomorrow, 21 September, Friday

    Time Temperature Precipitation Wind Pressure Humidity
    00:00 +14°C° 0 mm 1 mps 628 mmHg 23%
    01:00 +14°C° 0 mm 1 mps 628 mmHg 25%
    02:00 +14°C° 0 mm 1 mps 627 mmHg 26%
    03:00 +13°C° 0 mm 1 mps 627 mmHg 27%
    04:00 +13°C° 0 mm 1 mps 627 mmHg 27%
    05:00 +12°C° 0 mm 1 mps 627 mmHg 27%
    06:00 +13°C° 0 mm 1 mps 628 mmHg 26%
    07:00 +15°C° 0 mm 1 mps 628 mmHg 26%
    08:00 +16°C° 0 mm 1 mps 629 mmHg 26%
    09:00 +17°C° 0 mm 2 mps 629 mmHg 25%
    10:00 +19°C° 0 mm 3 mps 629 mmHg 24%
    11:00 +20°C° 0 mm 4 mps 630 mmHg 22%
    12:00 +21°C° 0 mm 5 mps 629 mmHg 22%
    13:00 +22°C° 0 mm 5 mps 629 mmHg 22%
    14:00 +22°C° 0 mm 6 mps 629 mmHg 21%
    15:00 +22°C° 0 mm 6 mps 629 mmHg 22%
    16:00 +21°C° 0 mm 5 mps 628 mmHg 23%
    17:00 +21°C° 0 mm 5 mps 628 mmHg 23%
    18:00 +20°C° 0 mm 4 mps 628 mmHg 26%
    19:00 +18°C° 0 mm 3 mps 628 mmHg 29%
    20:00 +18°C° 0 mm 1 mps 628 mmHg 32%
    21:00 +18°C° 0 mm 1 mps 628 mmHg 35%
    22:00 +16°C° 0 mm 1 mps 628 mmHg 38%
    23:00 +15°C° 0 mm 1 mps 628 mmHg 40%

    Day after tomorrow, 22 September, Saturday

    Time Temperature Precipitation Wind Pressure Humidity
    00:00 +15°C° 0 mm 1 mps 628 mmHg 40%
    01:00 +15°C° 0 mm 1 mps 627 mmHg 40%
    02:00 +15°C° 0 mm 1 mps 627 mmHg 40%
    03:00 +15°C° 0 mm 1 mps 627 mmHg 41%
    04:00 +14°C° 0 mm 1 mps 627 mmHg 43%
    05:00 +14°C° 0 mm 1 mps 627 mmHg 45%
    06:00 +15°C° 0 mm 1 mps 627 mmHg 42%
    07:00 +17°C° 0 mm 2 mps 628 mmHg 40%
    08:00 +18°C° 0 mm 2 mps 629 mmHg 37%
    09:00 +18°C° 0.2 mm 4 mps 630 mmHg 42%
    10:00 +17°C° 0.2 mm 5 mps 630 mmHg 47%
    11:00 +19°C° 0.2 mm 6 mps 630 mmHg 51%
    12:00 +17°C° 1 mm 6 mps 629 mmHg 56%
    13:00 +16°C° 1 mm 5 mps 629 mmHg 60%
    14:00 +15°C° 1 mm 4 mps 628 mmHg 65%
    15:00 +15°C° 0.4 mm 4 mps 628 mmHg 64%
    16:00 +15°C° 0.4 mm 4 mps 628 mmHg 63%
    17:00 +16°C° 0.4 mm 3 mps 627 mmHg 63%
    18:00 +14°C° 1.1 mm 3 mps 628 mmHg 67%
    19:00 +15°C° 1.1 mm 2 mps 628 mmHg 71%
    20:00 +14°C° 1.1 mm 2 mps 628 mmHg 75%
    21:00 +13°C° 1.6 mm 3 mps 628 mmHg 77%
    22:00 +13°C° 1.6 mm 3 mps 628 mmHg 78%
    23:00 +13°C° 1.6 mm 4 mps 628 mmHg 80%

    23 September, Sunday

    Time Temperature Precipitation Wind Pressure Humidity
    00:00 +12°C° 0.7 mm 4 mps 627 mmHg 80%
    01:00 +12°C° 0.7 mm 3 mps 627 mmHg 81%
    02:00 +12°C° 0.7 mm 3 mps 626 mmHg 81%
    03:00 +12°C° 0.2 mm 3 mps 626 mmHg 80%
    04:00 +12°C° 0.2 mm 3 mps 626 mmHg 79%
    05:00 +12°C° 0.2 mm 3 mps 626 mmHg 78%
    06:00 +14°C° 0 mm 4 mps 626 mmHg 71%
    07:00 +15°C° 0 mm 6 mps 627 mmHg 63%
    08:00 +17°C° 0 mm 7 mps 628 mmHg 56%
    09:00 +20°C° 0 mm 7 mps 628 mmHg 51%
    10:00 +21°C° 0 mm 8 mps 628 mmHg 46%
    11:00 +23°C° 0 mm 8 mps 629 mmHg 40%
    12:00 +24°C° 0 mm 8 mps 628 mmHg 37%
    13:00 +26°C° 0 mm 8 mps 628 mmHg 33%
    14:00 +27°C° 0 mm 8 mps 627 mmHg 30%
    15:00 +26°C° 0.6 mm 8 mps 627 mmHg 34%
    16:00 +23°C° 0.6 mm 8 mps 626 mmHg 39%
    17:00 +22°C° 0.6 mm 8 mps 626 mmHg 43%
    18:00 +21°C° 0.7 mm 6 mps 626 mmHg 48%
    19:00 +20°C° 0.7 mm 5 mps 626 mmHg 52%
    20:00 +19°C° 0.7 mm 3 mps 627 mmHg 56%
    21:00 +18°C° 0 mm 3 mps 626 mmHg 59%
    22:00 +17°C° 0 mm 2 mps 626 mmHg 61%
    23:00 +16°C° 0 mm 2 mps 626 mmHg 64%

    24 September, Monday

    Time Temperature Precipitation Wind Pressure Humidity
    00:00 +16°C° 0 mm 2 mps 626 mmHg 65%
    01:00 +16°C° 0 mm 2 mps 626 mmHg 66%
    02:00 +16°C° 0 mm 2 mps 626 mmHg 67%
    03:00 +16°C° 0.1 mm 3 mps 626 mmHg 68%
    04:00 +16°C° 0.1 mm 3 mps 626 mmHg 68%
    05:00 +16°C° 0.1 mm 3 mps 626 mmHg 68%
    06:00 +16°C° 0.1 mm 3 mps 626 mmHg 66%
    07:00 +17°C° 0.1 mm 4 mps 627 mmHg 64%
    08:00 +17°C° 0.1 mm 4 mps 628 mmHg 62%
    09:00 +16°C° 0.4 mm 5 mps 628 mmHg 64%
    10:00 +16°C° 0.4 mm 5 mps 627 mmHg 65%
    11:00 +16°C° 0.4 mm 6 mps 627 mmHg 67%
    12:00 +16°C° 1 mm 5 mps 627 mmHg 66%
    13:00 +15°C° 1 mm 4 mps 627 mmHg 66%
    14:00 +16°C° 1 mm 3 mps 626 mmHg 66%
    15:00 +15°C° 0.4 mm 4 mps 626 mmHg 65%
    16:00 +15°C° 0.4 mm 4 mps 626 mmHg 64%
    17:00 +15°C° 0.4 mm 5 mps 626 mmHg 64%
    18:00 +15°C° 0 mm 4 mps 626 mmHg 67%
    19:00 +14°C° 0 mm 3 mps 626 mmHg 70%
    20:00 +14°C° 0 mm 2 mps 626 mmHg 73%
    21:00 +14°C° 0 mm 2 mps 626 mmHg 73%
    22:00 +14°C° 0 mm 2 mps 626 mmHg 74%
    23:00 +14°C° 0 mm 2 mps 626 mmHg 74%

    25 September, Tuesday

    Time Temperature Precipitation Wind Pressure Humidity
    00:00 +13°C° 0 mm 2 mps 625 mmHg 74%
    01:00 +13°C° 0 mm 2 mps 625 mmHg 73%
    02:00 +13°C° 0 mm 2 mps 624 mmHg 73%
    03:00 +13°C° 0 mm 2 mps 624 mmHg 71%
    04:00 +13°C° 0 mm 2 mps 624 mmHg 70%
    05:00 +13°C° 0 mm 2 mps 624 mmHg 68%
    06:00 +13°C° 0 mm 3 mps 625 mmHg 63%
    07:00 +16°C° 0 mm 3 mps 626 mmHg 58%
    08:00 +17°C° 0 mm 3 mps 626 mmHg 53%
    09:00 +20°C° 0 mm 4 mps 626 mmHg 46%
    10:00 +22°C° 0 mm 5 mps 627 mmHg 38%
    11:00 +24°C° 0 mm 7 mps 627 mmHg 30%
    12:00 +26°C° 0 mm 7 mps 627 mmHg 29%
    13:00 +27°C° 0 mm 7 mps 626 mmHg 27%
    14:00 +27°C° 0 mm 7 mps 626 mmHg 26%
    15:00 +26°C° 0.4 mm 6 mps 625 mmHg 32%
    16:00 +23°C° 0.4 mm 4 mps 625 mmHg 38%
    17:00 +21°C° 0.4 mm 3 mps 624 mmHg 44%
    18:00 +20°C° 0.3 mm 3 mps 624 mmHg 49%
    19:00 +19°C° 0.3 mm 2 mps 625 mmHg 55%
    20:00 +18°C° 0.3 mm 2 mps 625 mmHg 60%
    21:00 +18°C° 0.1 mm 2 mps 625 mmHg 62%
    22:00 +18°C° 0.1 mm 2 mps 625 mmHg 64%
    23:00 +17°C° 0.1 mm 3 mps 625 mmHg 66%
    Show more